Location: M?digepalle
(16.1753°N, 80.3496°E)
Time: 08:38:36
(UTC+00:00)

Feng Yun 1-1 Rocket - Pass Details

Date: 29 October 2020
Orbit: 829 x 934 km, 99.2° (Epoch: 27 November)

Event Time Altitude Azimuth Distance (km) Brightness Sun altitude
Rises 13:04:21 0° 168° (SSE) 3,518 7.4 -13.7°
Reaches altitude 10° 13:06:44 10° 169° (S) 2,591 6.7 -14.2°
Maximum altitude 13:12:32 83° 256° (WSW) 934 4.5 -15.6°
Drops below altitude 10° 13:18:27 10° 345° (NNW) 2,635 6.8 -17.0°
Sets 13:20:54 0° 346° (NNW) 3,581 7.5 -17.6°
